Location: Grand Moustoir
(47.8355°N, 3.3120°W)
Time: 23:08:00
(UTC+00:00)

Cosmos 2227 Rocket - Pass Details

Date: 20 January 2020
Orbit: 841 x 843 km, 71.0° (Epoch: 18 February)

Event Time Altitude Azimuth Distance (km) Brightness Sun altitude
Exits shadow 05:49:27 18° 220° (SW) 1,965 3.8 -20.6°
Drops below altitude 10° 05:51:17 10° 205° (SSW) 2,452 4.4 -20.2°
Sets 05:54:06 0° 192° (SSW) 3,382 5.3 -19.8°
